Location: Charing Cross
(51.5078°N, 0.1220°W)
Time: 15:17:43
(UTC+00:00)

Daily predictions for brighter satellites

Satellite Brightness Start Highest point End
(mag) Time Altitude Azimuth Time Altitude Azimuth Time Altitude Azimuth
Cosmos 2278 Rocket 2.3 20:21:31 10° SSW 20:27:11 87° WNW 20:32:53 10° NNE
COSMOS 2406 4.5 20:22:49 10° NW 20:28:02 39° WSW 20:33:14 10° S
Cosmos 1666 2.7 20:26:12 10° N 20:29:57 88° W 20:33:41 10° S
Cosmos 1818 3.7 20:25:07 10° NW 20:30:38 73° NE 20:36:07 10° SE
Cosmos 2369 Rocket 3.9 20:28:08 10° SE 20:30:49 14° E 20:33:31 10° ENE
SL-24 R/B - RUBIN 2 4.1 20:27:22 10° NW 20:32:58 80° SW 20:37:51 10° SE
Meteor 1-10 Rocket 4.4 20:27:30 10° S 20:33:01 60° E 20:38:41 10° NNE
Landsat 7 3.9 20:29:44 10° SSE 20:34:29 82° ENE 20:39:18 10° NNW
Cosmos 1536 3.4 20:31:56 10° N 20:35:50 44° ENE 20:39:40 10° SSE
ERBS 2.3 20:33:37 10° WNW 20:36:55 68° SSW 20:40:12 10° SE
SWARM A 4.4 20:36:04 10° N 20:39:24 78° W 20:42:42 10° S
Cosmos 2154 Rocket 4.2 20:37:34 10° N 20:43:52 63° ENE 20:50:04 10° SSE
SPOT 5 3.8 20:40:15 10° SE 20:45:09 41° ENE 20:50:10 10° N
Cosmos 1812 3.3 20:42:32 10° SSW 20:46:21 62° WNW 20:50:12 10° N
Cosmos 2074 Rocket 4.1 20:40:04 10° N 20:46:25 89° W 20:52:43 10° S
OBJECT-B 3.7 20:44:29 10° SW 20:46:31 15° W 20:48:34 10° NW
Nadezhda 1 Rocket 4.3 20:41:06 10° SSE 20:47:06 51° E 20:53:03 10° NNE
Cosmos 1833 Rocket 4.4 20:43:41 10° NW 20:48:24 28° WSW 20:53:05 10° SSW
Cosmos 2184 Rocket 4.1 20:43:44 10° N 20:49:59 88° W 20:56:09 10° S
ERS-1 Rocket 3.5 20:49:11 10° SE 20:53:58 47° ENE 20:58:48 10° N
Cosmos 1515 Rocket 4.2 20:50:54 10° SSW 20:55:14 60° WNW 20:59:34 10° N
Meteor 2-6 Rocket 4.5 20:50:47 10° SSW 20:56:15 75° WNW 21:01:57 10° N
ISS -3.6 20:53:03 10° SW 20:56:20 52° SSE 20:59:38 10° E
Cosmos 2112 Rocket 4.1 20:51:39 10° NNW 20:57:03 86° WSW 21:02:25 10° SSE
Cosmos 1869 Rocket 3.5 20:55:04 10° N 20:59:27 85° E 21:03:48 10° S
Cosmos 44 4.2 20:59:55 10° NW 21:05:09 49° WSW 21:10:08 10° SSE
Cosmos 1937 Rocket 3.9 21:00:54 10° S 21:05:46 44° ESE 21:10:40 10° NE
Spot 2 Rocket 3.5 21:00:46 10° SSE 21:05:49 82° ENE 21:10:54 10° NNW
Cosmos 1743 3.0 21:04:01 10° N 21:07:50 52° ENE 21:11:02 14° SSE
Cosmos 2228 Rocket 3.1 21:04:04 10° S 21:08:32 85° E 21:13:04 10° NNE
RESURS DK-1 3.5 21:06:31 10° NNW 21:10:24 36° NE 21:13:58 12° ESE
Cosmos 1610 Rocket 4.5 21:04:58 10° N 21:11:10 90° SSW 21:17:19 10° S
SPOT 1/Viking Rocket 3.8 21:06:27 10° S 21:11:38 71° WSW 21:16:49 10° NNW
Cosmos 2084 Rocket 4.3 21:08:39 10° NW 21:12:42 43° SW 21:16:25 13° SSE
Resurs 01 Rocket 3.0 21:10:19 10° SSW 21:14:22 35° W 21:18:28 10° NNW
Cosmos 1707 Rocket 3.9 21:14:45 11° SSE 21:18:44 49° E 21:23:03 10° NNE
Meteor 1-27 Rocket 3.9 21:13:18 10° S 21:19:11 85° E 21:25:11 10° NNE
CARTOSAT-1 3.6 21:15:34 12° SSE 21:19:34 86° W 21:23:55 10° NNW
Cosmos 1680 Rocket 4.2 21:16:38 10° NNW 21:21:46 50° WSW 21:26:52 10° S
Tianhe-1 3.1 21:26:36 10° SW 21:28:08 13° S 21:28:08 13° S
Cosmos 1867 4.4 21:23:59 10° S 21:28:41 31° ESE 21:33:26 10° NE
SJ 16-02 3.3 21:24:53 10° WSW 21:28:52 32° WNW 21:32:53 10° N
DNEPR-1 R/B 4.0 21:23:49 10° SSW 21:29:37 69° SE 21:34:25 10° NE
Iridium 4 Rocket 4.4 21:27:33 10° SSW 21:33:22 58° W 21:39:08 10° N
Cosmos 44 Rocket 4.2 21:28:32 10° NW 21:33:37 47° NE 21:38:15 12° ESE
Cosmos 2297 3.7 21:28:40 10° SSW 21:34:22 85° ESE 21:40:04 10° NNE
BREEZE-M R/B 2.1 21:32:48 10° W 21:35:09 46° S 21:36:27 24° SE
SL-27 R/B 4.0 21:33:09 10° N 21:35:59 25° ENE 21:38:02 15° ESE
BREEZE M DEB (TANK) 3.1 21:34:05 10° W 21:36:34 19° SW 21:37:17 17° SSW
Cosmos 1544 3.8 21:37:05 10° NNW 21:40:35 47° W 21:43:38 13° SSW
Cosmos 372 Rocket 4.2 21:36:41 13° S 21:41:06 49° ESE 21:46:01 10° NNE
Cosmos 1733 Rocket 3.0 21:37:48 10° N 21:42:09 80° ENE 21:45:11 19° SSE
Terra 1.8 21:38:38 18° SSE 21:42:14 82° ENE 21:47:02 10° NNW
Cosmos 1515 3.7 21:39:36 18° S 21:42:20 63° E 21:46:05 10° NNE
Cosmos 2082 Rocket 4.2 21:39:37 10° NW 21:43:36 20° W 21:47:36 10° SW
Cosmos 1943 Rocket 2.1 21:38:59 10° SSW 21:44:36 79° ESE 21:50:12 10° NNE
Cosmos 1340 Rocket 3.7 21:40:52 10° NNW 21:44:48 47° W 21:48:11 13° SSW
USA 215 4.0 21:41:42 10° ENE 21:48:03 56° N 21:54:25 10° W
ATLAS 2AS CENTAUR R/B 3.9 21:43:16 10° NW 21:49:38 33° WSW 21:55:13 12° S
Cosmos 2341 Rocket 4.1 21:43:30 10° N 21:49:58 87° WSW 21:55:11 16° S
Cosmos 1656 Rocket 4.4 21:46:52 19° SSE 21:50:04 34° ESE 21:55:00 10° NE
Okean 1 3.3 21:49:15 19° S 21:52:00 68° E 21:55:58 10° NNE
Cosmos 2218 Rocket 4.1 21:47:01 10° N 21:53:21 71° ENE 21:58:01 19° SSE
Cosmos 1898 Rocket 4.1 21:51:03 10° SW 21:56:19 62° WNW 22:01:38 10° NNE
Cosmos 494 Rocket 4.5 21:52:17 10° NNW 21:57:22 51° ENE 22:00:49 20° SE
ARIANE 5 R/B 3.9 21:56:25 11° SSW 22:00:10 34° W 22:04:10 10° NNW
SL-8 Rocket 4.0 21:55:40 10° N 22:02:02 89° W 22:06:45 19° S
H-2A R/B 3.4 21:59:02 10° NNE 22:03:13 74° ESE 22:05:59 20° S
Cosmos 1908 Rocket 3.9 21:59:42 10° N 22:04:08 54° ENE 22:06:34 25° SE
Cosmos 1461 3.3 22:01:34 10° SW 22:06:16 75° NW 22:10:51 10° NE
NOSS 2-1 (C) 4.3 22:05:25 10° NW 22:09:51 63° NE 22:14:45 16° ESE
SOZ 4.5 22:08:10 10° W 22:10:21 87° N 22:14:07 10° E
Cosmos 2369 Rocket 2.1 22:08:17 10° SSW 22:13:50 74° ESE 22:19:31 10° NNE
ATLAS CENTAUR R/B 1.4 22:12:29 29° S 22:13:54 44° SE 22:17:33 10° NE
NOSS 2-1 (D) 4.2 22:12:16 10° NW 22:16:45 69° NE 22:21:25 18° SE
Cosmos 1238 Rocket 4.0 22:14:14 10° NNW 22:19:50 56° W 22:23:11 19° SSW
Okean 1-7 3.5 22:21:21 28° SE 22:23:02 43° E 22:27:07 10° NNE
SPOT 5 4.2 22:19:04 13° SSW 22:23:15 37° W 22:28:13 10° NNW
COSMOS 2487 4.1 22:20:32 10° N 22:23:23 24° NE 22:24:59 17° E
Cosmos 2344 4.3 22:16:17 10° NW 22:25:08 84° NE 22:35:50 15° SE
Spot 4 4.3 22:24:53 25° SE 22:27:34 54° ENE 22:32:18 10° N
Cosmos 2242 Rocket 3.8 22:27:54 30° SSE 22:29:54 56° E 22:34:20 10° NNE
Cosmos 1975 3.2 22:27:38 10° NNW 22:31:33 56° W 22:33:30 27° SSW
Cosmos 2150 Rocket 4.1 22:28:55 25° S 22:31:56 58° ESE 22:37:06 10° NNE
ERS-1 Rocket 4.4 22:29:05 12° SSW 22:32:58 29° W 22:37:21 10° NNW
ISS -3.8 22:29:42 10° W 22:33:05 86° N 22:36:28 10° E
Cosmos 1125 Rocket 3.8 22:31:08 27° SSE 22:33:36 48° ESE 22:38:36 10° NE
Cosmos 1862 Rocket 4.1 22:31:22 17° SSW 22:34:33 55° WNW 22:38:50 10° N
Cosmos 1703 Rocket 3.7 22:34:26 31° SSE 22:36:21 60° E 22:40:45 10° NNE
Cosmos 1782 Rocket 3.7 22:32:32 10° N 22:36:59 64° ENE 22:38:55 32° SSE
Cosmos 1378 3.9 22:38:54 31° ESE 22:39:44 36° E 22:43:10 10° NNE
Meteor 1-18 Rocket 4.4 22:36:51 16° SSW 22:41:21 69° WNW 22:46:55 10° N
Cosmos 1607 4.0 22:40:01 10° SW 22:46:30 85° SE 22:53:02 10° NE
RESURS DK-1 3.5 22:44:38 10° NW 22:48:24 33° WSW 22:49:50 26° SSW
Lacrosse 5 2.4 22:48:53 31° S 22:50:19 38° SE 22:55:01 10° ENE
Cosmos 1934 Rocket 4.4 22:45:55 10° N 22:51:52 50° ENE 22:55:20 24° SE
Cosmos 1805 4.0 22:50:41 10° N 22:54:24 41° ENE 22:55:42 30° ESE
Cosmos 2263 4.3 22:51:19 13° SW 22:56:36 79° WNW 23:02:27 10° NNE
Cosmos 1356 Rocket 3.4 22:55:53 10° NNW 23:00:13 88° ENE 23:01:50 38° SSE
Cosmos 2227 Rocket 3.8 22:56:44 10° NNW 23:01:44 30° NE 23:06:41 10° ESE
Cosmos 2297 Rocket 3.4 22:58:27 10° NNW 23:03:43 37° NE 23:08:40 11° ESE
Cosmos 1821 Rocket 4.0 22:57:52 10° NNW 23:04:18 83° W 23:07:52 28° S
Okean 3 3.5 23:06:38 40° SSE 23:08:01 66° E 23:12:12 10° NNE
Meteor 1-12 Rocket 4.3 23:03:27 10° NNW 23:09:19 80° W 23:12:13 31° S
SL-27 R/B 3.6 23:08:06 10° NW 23:11:01 28° WSW 23:11:32 27° WSW
Cosmos 1867 4.0 23:06:34 10° SW 23:11:59 63° NW 23:17:28 10° NE
NOSS 2-1 (E) 4.3 23:09:25 10° NW 23:14:14 64° SW 23:17:30 29° SSE
Meteor 2-4 Rocket 4.1 23:10:26 19° SSW 23:14:24 58° WNW 23:19:51 10° N
Cosmos 44 Rocket 4.0 23:10:16 10° NW 23:15:11 42° WSW 23:16:57 31° SSW
Cosmos 1766 3.8 23:12:09 10° N 23:16:00 48° ENE 23:17:13 35° SE
Meteor 1-15 Rocket 4.3 23:11:05 10° N 23:16:51 78° ENE 23:19:48 31° SSE
Terra 4.1 23:17:49 10° WSW 23:20:37 15° W 23:23:25 10° NW
COSMOS 2455 2.9 23:18:39 10° NW 23:24:43 76° NE 23:28:40 23° SE
Cosmos 2221 Rocket 4.1 23:23:40 35° SE 23:25:09 50° E 23:29:33 10° NNE
Cosmos 1943 Rocket 4.2 23:24:16 10° W 23:28:58 27° NW 23:33:39 10° NNE
USA 215 3.6 23:24:13 10° E 23:30:42 66° NNE 23:37:10 10° WNW
ALOS 2 2.6 23:29:20 40° S 23:30:51 72° WSW 23:35:15 10° NNW
Cosmos 1300 Rocket 3.5 23:28:28 10° NNW 23:32:53 81° W 23:34:19 42° S
Cosmos 1269 Rocket 4.0 23:27:38 10° NNW 23:32:54 70° WSW 23:35:08 35° S
COBE Rocket 4.0 23:31:00 35° S 23:33:15 84° WSW 23:38:30 10° NNW
Cosmos 1656 Rocket 4.4 23:28:11 10° SW 23:33:28 50° NW 23:38:55 10° NNE
USA 81 4.4 23:28:46 10° N 23:33:59 55° ENE 23:36:30 29° SE
Cosmos 1470 4.2 23:31:29 10° N 23:34:59 30° ENE 23:36:35 22° ESE
Cosmos 2251 Rocket 4.3 23:34:18 10° NNW 23:39:22 46° ENE 23:42:54 19° SE
Cosmos 1733 3.2 23:42:20 10° NNW 23:46:07 68° W 23:46:57 50° SSW
Cosmos 1842 3.9 23:46:42 36° SE 23:47:32 41° E 23:51:14 10° NNE
Meteor 1-23 Rocket 4.2 23:46:20 32° S 23:49:11 87° ESE 23:55:02 10° NNE
Thor Agena Rocket 3.8 23:45:21 10° NNE 23:50:35 60° ESE 23:52:46 34° SSE
ATLAS CENTAUR R/B 3.0 23:49:31 10° W 23:52:53 31° NW 23:56:24 10° NNE
